Regional Weather Roundup
Issued by NWS

Home | Current Version | Previous Version | Text Only | Print | Product List | Glossary On
Versions: 1 2 3 4 5 6 7 8 9 10 11 12 13 14 15 16 17 18 19 20 21 22 23 24 25 26 27 28 29 30 31 32 33 34 35 36 37 38 39 40 41 42 43 44 45 46 47 48 49 50
000
ASUS46 KLOX 020813
RWRCA

SOUTHERN CALIFORNIA WEATHER ROUNDUP
NATIONAL WEATHER SERVICE OXNARD CALIFORNIA
100 AM PDT THU JUL 02 2015

NOTE: "FAIR" INDICATES FEW OR NO CLOUDS BELOW 12,000 FEET WITH NO
SIGNIFICANT WEATHER AND/OR OBSTRUCTIONS TO VISIBILITY.

  -  STATIONS PRECEEDED BY AN ASTERISK (*) ARE NOT NWS OR FAA
     STATIONS AND ARE NOT SUBJECT TO NWS AND FAA QUALITY CONTROL.

CAZ041-042-087-020900-
LA AND ORANGE COUNTY COASTAL AREAS


CITY           SKY/WX    TMP DP  RH WIND       PRES   REMARKS
L.A. DOWNTOWN  CLOUDY    69  62  78 CALM      29.95R
L.A. AIRPORT   CLOUDY    67  62  84 CALM      29.96R
LONG BEACH     CLOUDY    72  63  73 NW3       29.95S

CITY           SKY/WX    TMP DP  RH WIND       PRES   REMARKS
AVALON           N/A    N/A N/A N/A MISG        N/A
FULLERTON      CLOUDY    72  63  73 CALM      29.94S
HAWTHORNE      CLOUDY    69  62  78 CALM      29.96S
*LOS ALAMITOS  CLOUDY    68  65  88 CALM      29.95S
*REDONDO BEACH   N/A     66  63  88 W1        29.95S
SANTA ANA      CLOUDY    69  64  84 CALM      29.95S
STA MONICA APT CLOUDY    65  61  87 CALM      29.96R
*UCLA            N/A     68  61  77 CALM      29.93S

$$

CAZ547-548-048-020900-
LA COUNTY VALLEYS AND INLAND EMPIRE


CITY           SKY/WX    TMP DP  RH WIND       PRES   REMARKS
BURBANK        MOCLDY    74  59  59 SE7       29.95S
VAN NUYS       MOCLDY    75  55  49 SE6       29.95S

CITY           SKY/WX    TMP DP  RH WIND       PRES   REMARKS
CORONA AIRPORT PTSUNNY   72  62  70 CALM      29.97R
*CHATSWORTH      N/A     76  54  46 CALM      29.92S
CHINO          MOCLDY    73  62  68 CALM      29.97S
MARCH AFB      MOCLDY    71  58  62 W2        29.99S
*NORTHRIDGE      N/A     75  52  43 CALM        N/A
ONTARIO        MOCLDY    73  59  61 CALM      29.97R
*PASADENA        N/A    N/A N/A N/A E3          N/A
RIVERSIDE      MOCLDY    74  60  61 CALM      29.97S
SAN BERNARDINO NOT AVBL
*SAN GABRIEL     N/A     72  63  72 SW3       30.02S
*WHITEMAN AP   NOT AVBL
*WOODLAND HILL   N/A     75  54  46 E1          N/A

$$

CAZ054-055-020900-
LA AND SAN BERNARDINO COUNTY MOUNTAINS


CITY           SKY/WX    TMP DP  RH WIND       PRES   REMARKS
SANDBERG       MOCLDY    73  51  46 S6        30.15S

$$

CAZ028-029-059-060-099-020900-
ANTELOPE VALLEY AND SURROUNDING AREAS


CITY           SKY/WX    TMP DP  RH WIND       PRES   REMARKS
LANCASTER      PTCLDY    79  50  36 SW16      29.99R
PALMDALE       CLEAR     78  51  38 W7        30.00R

CITY           SKY/WX    TMP DP  RH WIND       PRES   REMARKS
29 PALMS       CLEAR     79  65  62 CALM      30.02R
BARSTOW/DAGGET CLEAR     82  56  40 NW10      29.93S
BISHOP         LGT RAIN  79  54  41 NE6       30.14R
CHINA LAKE     MOCLDY    82  57  42 S12       29.92S
EDWARDS AFB    PTCLDY    78  51  38 SW14      29.95S
MOJAVE         FAIR      81  55  41 SW9       29.99S
NEEDLES        MOCLDY    90  62  39 CALM      29.87R HX  90

$$

CAZ039-040-020900-
VENTURA AND SANTA BARBARA COUNTY COAST


CITY           SKY/WX    TMP DP  RH WIND       PRES   REMARKS
CAMARILLO      MOCLDY    65  59  81 W3        29.94F
NWS OXNARD       N/A     64  60  86 CALM      29.94S
OXNARD AIRPORT MOCLDY    65  60  84 W3        29.95S
*POINT MUGU    MOCLDY    67  60  78 NW3       29.95S
SBA APT/GOLETA MOCLDY    63  59  87 SW3       29.94F
*SANTA BARBARA   N/A     65  59  79 CALM      30.02S
*VENTURA         N/A     66  60  81 CALM      29.56S

$$

CAZ044-045-020900-
VENTURA COUNTY VALLEYS


CITY           SKY/WX    TMP DP  RH WIND       PRES   REMARKS
*SIMI VALLEY     N/A     68  60  75 CALM      29.89S
*OJAI            N/A     69  60  72 CALM      29.87S
*FILLMORE        N/A     67  60  78 CALM      29.84F

$$

CAZ053-020900-
VENTURA COUNTY MOUNTAINS


CITY           SKY/WX    TMP DP  RH WIND       PRES   REMARKS

$$

CAZ034-035-036-020900-
CENTRAL COAST AND SANTA YNEZ VALLEY


CITY           SKY/WX    TMP DP  RH WIND       PRES   REMARKS
SAN LUIS OBISP MOCLDY    62  55  77 CALM      29.95R
SANTA MARIA    PTCLDY    59  57  93 W5        29.96R

CITY           SKY/WX    TMP DP  RH WIND       PRES   REMARKS
*CAL POLY SLO    N/A     63  57  82 SW2         N/A
*LOMPOC        PTCLDY    59  54  82 W6        29.96R
*PISMO BEACH     N/A     59  58  96 S2        29.96R

$$

CAZ037-038-051-020900-
SAN LUIS OBISPO COUNTY INTERIOR AND CUYAMA VALLEY


CITY           SKY/WX    TMP DP  RH WIND       PRES   REMARKS
*CUYAMA          N/A     76  43  31 W1        29.85R
PASO ROBLES    PTCLDY    70  49  47 N6        29.93R

$$

CAZ032-033-061-020900-
SOUTHERN DESERTS


CITY           SKY/WX    TMP DP  RH WIND       PRES   REMARKS
BLYTHE         PTCLDY    84  65  52 S8        29.85R
IMPERIAL       CLEAR     83  67  58 S5        29.82S
PALM SPRINGS   PTCLDY    88  60  38 NW7       29.88S
THERMAL        MOCLDY    84  71  65 W3        29.81F

$$

ELSEWHERE ACROSS THE WESTERN UNITED STATES AND MEXICO


CITY           SKY/WX    TMP DP  RH WIND       PRES   REMARKS
DENVER, CO     PTCLDY    65  54  67 SW9       30.08F
GRAND CANYON,  CLOUDY    63  58  83 E3        30.29R
HONOLULU, HI   PTCLDY    81  70  69 NE6       29.90R
KAHULUI, MAUI  CLEAR     79  72  78 E5        29.91R
LAKE TAHOE, CA PTCLDY    63  53  70 CALM      30.26F
LAS VEGAS, NV  CLOUDY    92  55  28 W10       29.84S HX  90
MAMMOTH LAKES, NOT AVBL
MEXICO CITY, M CLOUDY    59  55  88 SE2       30.32F
PHOENIX, AZ    CLOUDY    92  58  31 W12       29.88R HX  91
PORTLAND, OR   CLEAR     74  58  57 CALM      29.94R
RENO, NV       MOCLDY    79  51  37 SE8       30.13S
SALT LAKE CITY CLOUDY    79  53  40 S6        30.02R
SAN DIEGO, CA  MOCLDY    73  65  75 CALM      29.96F
SAN FRANCISCO, MOCLDY    60  56  86 W7        29.91R
SAN JOSE, CA   PTCLDY    68  61  78 CALM      29.90R
SEATTLE, WA    CLEAR     75  54  47 NE12      29.98S
TIJUANA, MEX   CLOUDY    68  64  88 CALM      29.98S FOG

$$

STATION/POSITION TIME  TEMP    WIND        PRES    VSBY  WAVE
                       AIR SEA DIR/SP/G                  HT/PER
                 (UTC) (F)     (DEG/KT/KT) (MB)    (MI)  (FT/S)
POINT ARGUELLO B NOT AVBL
WEST SANTA BARBA 0750   60 62  280/ 10/ 12 1013.4F         4/ 8
POINT CONCEPTION NOT AVBL
EAST SANTA BARBA 0800   61 65  270/  6/  8 1014.6F
SANTA MONICA BAY 0750   65 68  280/  4/  6 1014.2R         3/16



USA.gov is the U.S. government's official web portal to all federal, state and local government web resources and services.